Regional Weather Roundup
Issued by NWS

Home | Current Version | Previous Version | Graphics & Text | Print | Product List | Glossary On
Versions: 1 2 3 4 5 6 7 8 9 10 11 12 13 14 15 16 17 18 19 20 21 22 23 24 25 26 27 28 29 30 31 32 33 34 35 36 37 38 39 40 41 42 43 44 45 46 47 48 49 50
973
ASUS43 KFSD 291710
RWRSD

WEATHER ROUNDUP FOR SOUTH DAKOTA
NATIONAL WEATHER SERVICE SIOUX FALLS SD
1200 PM CDT MON MAY 29 2017

NOTE: "FAIR" INDICATES FEW OR NO CLOUDS BELOW 12,000 FEET WITH NO
SIGNIFICANT WEATHER AND/OR OBSTRUCTIONS TO VISIBILITY.


SDZ001>005-009-010-012>017-291800-
NORTHWEST AND NORTH CENTRAL SOUTH DAKOTA

CITY           SKY/WX    TMP DP  RH WIND       PRES   REMARKS
BUFFALO          N/A     60  36  40 NW25G38   30.08F
FAITH            N/A     62  37  39 N18G33    30.10F
MOBRIDGE       PTSUNNY   62  39  42 NW23G32   30.02S
$$

SDZ012>016-024>037-041>051-057-063-072>074-291800-
SOUTHWEST AND SOUTH CENTRAL SOUTH DAKOTA

CITY           SKY/WX    TMP DP  RH WIND       PRES   REMARKS
RAPID CTY ARPT SUNNY     63  35  35 N21G30    30.15F
PIERRE         PTSUNNY   64  40  41 NW20G31   30.06F
CUSTER         SUNNY     58  16  19 NW10G17   30.19S
ELLSWORTH AFB  SUNNY     63  35  34 NW21G26   30.15S
PHILIP         PTSUNNY   66  37  34 N20G25    30.12S
PINE RIDGE     SUNNY     62  41  46 W6        30.17S
SPEARFISH      FAIR      59  32  36 NW16G25   30.19S
WINNER         FAIR      65  43  44 NW20G31   30.09S
$$

SDZ004>011-016>023-039-040-291800-
NORTHEAST SOUTH DAKOTA

CITY           SKY/WX    TMP DP  RH WIND       PRES   REMARKS
ABERDEEN       CLOUDY    56  42  59 NW20G29   29.99R
WATERTOWN      CLOUDY    56  48  74 NW18      29.95R
BROOKINGS      CLOUDY    56  48  74 NW18      29.97R
SISSETON         N/A     53  51  93 NW18G32   29.92R
$$

SDZ017-020-022-023-036>040-048>070-291800-
SOUTHEAST SOUTH DAKOTA

CITY           SKY/WX    TMP DP  RH WIND       PRES   REMARKS
SIOUX FALLS    PTSUNNY   62  47  57 NW17G31   29.98R
HURON          CLOUDY    57  44  62 NW17G26   30.02R
CHAMBERLAIN    CLOUDY    65  43  43 NW20G30   30.06S
MITCHELL       CLOUDY    63  44  50 NW20G28   30.03R
YANKTON        MOSUNNY   66  44  45 W25G31    30.02S
$$

ABBREVIATIONS USED IN REMARKS
   TC - TEMPERATURE IN CELSIUS
  WCI - WIND CHILL INDEX
   HX - HEAT INDEX
  VSB - VISIBILITY





USA.gov is the U.S. government's official web portal to all federal, state and local government web resources and services.